User: anonymous   Login
Location: Sceptre
(50.8619°N, 109.2670°W)
Time: 10:25:37
(UTC+00:00)
Language:

A-11 Canister half - Orbit

View from above orbital plane
View from above orbital plane
View from above satellite
View from above satellite

Ground track
Ground track

The orbit data is extracted from the following two-line orbital elements,

1    51U 60009C   22147.84896603 -.00000012  00000-0  70975-3 0  9996
2    51  47.2134 312.7280 0108446 112.3049 248.9278 12.18282953750569
Epoch (UTC): 27 May 2022 20:22:30
Eccentricity: 0.0108446
inclination: 47.2134°
perigee height: 1513 km
apogee height: 1686 km
right ascension of ascending node: 312.7280°
argument of perigee: 112.3049°
revolutions per day: 12.18282953
mean anomaly at epoch: 248.9278°
orbit number at epoch: 75056

The dashed part of the orbit path shows where the satellite is in the earth's shadow,  

DLR